Location: Newark
(22.3060°N, 114.2134°E)
Time: 20:08:10
(UTC+00:00)

Vanguard 2 - Pass Details

Date: 11 August 2021
Orbit: 553 x 2937 km, 32.9° (Epoch: 27 September)

Event Time Altitude Azimuth Distance (km) Brightness Sun altitude
Rises 23:24:31 0° 290° (WNW) 2,780 9.9 18.4°
Reaches altitude 10° 23:26:33 10° 285° (WNW) 1,971 9.2 18.8°
Maximum altitude 23:30:49 54° 207° (SSW) 909 8.0 19.8°
Drops below altitude 10° 23:37:04 10° 131° (SE) 2,855 11.1 21.2°
Sets 23:40:33 0° 128° (SE) 4,185 12.0 22.0°
